Cloud_Cover
5 4 100 100 26 11 16 5 11 81 4 2 5 76 100 93 4 100 64 0 0 0 0 0 0 0 0 0 0 0 0 0 0 0 3 0 0 0 0 0 0 5 4 5
10 55 100 100 100 90 70 19 28 82 100 99 88 100 100 100 98 7 5 10 0 0 0 0 0 0 0 0 0 0 0 2 0 1 5 5 5 5 5 5 5 4 5 5
70 100 100 94 45 92 50 43 4 5 18 14 78 100 100 100 94 88 7 14 91 28 0 0 0 0 0 0 0 0 0 0 5 2 4 5 12 82 40 17 5 5 5 5
100 100 100 100 97 69 8 11 13 5 5 52 18 28 100 100 100 100 100 61 72 100 95 50 0 0 0 0 0 0 0 0 0 0 2 11 38 78 38 5 5 5 5 17
100 100 100 100 100 87 83 63 5 5 89 98 98 14 100 100 100 100 100 100 50 34 5 5 12 13 1 1 0 0 0 0 0 0 0 0 0 0 2 5 63 76 48 24
84 100 100 100 100 100 37 83 42 7 5 20 68 2 95 100 100 100 100 100 100 100 98 100 100 100 76 25 4 4 5 0 0 0 3 2 0 4 5 16 54 9 5 4
71 100 64 17 29 58 43 46 50 5 15 29 58 0 96 100 100 100 100 100 100 100 100 94 100 100 100 100 100 77 6 5 2 0 2 0 0 0 0 1 3 5 5 5
73 83 97 39 77 94 92 100 86 90 3 4 5 4 93 100 99 5 32 100 100 100 100 100 59 93 100 100 100 100 100 94 61 3 2 3 4 1 0 0 0 5 5 13
100 26 22 77 98 100 100 65 100 100 100 91 11 22 0 100 100 95 96 100 84 99 100 100 100 100 100 100 100 100 100 100 100 100 100 16 40 65 99 75 14 6 40 100
100 100 100 100 24 78 100 100 100 100 100 100 100 100 92 71 85 6 74 87 100 100 100 93 83 97 92 100 100 100 100 100 100 100 100 100 100 100 100 100 100 100 100 100
100 95 100 29 14 70 100 100 100 100 100 100 100 96 94 96 87 33 5 29 95 100 100 100 91 26 90 99 100 100 79 96 100 100 100 100 100 100 100 100 100 100 100 100
100 100 100 15 100 77 56 100 100 100 100 100 100 100 98 100 96 97 64 100 100 100 100 95 30 99 100 100 100 100 52 3 98 100 100 100 100 100 100 100 100 100 100 100
100 100 100 100 89 100 100 100 100 100 100 100 100 100 100 100 100 100 100 100 100 100 100 95 93 3 15 5 29 27 88 94 81 7 5 49 100 100 100 100 100 100 100 100
100 100 100 100 100 100 100 100 100 100 100 100 100 100 100 100 100 100 100 100 100 100 24 89 16 5 5 2 94 50 94 100 100 100 100 100 100 100 96 59 100 100 100 100
100 100 100 100 100 100 100 100 100 98 100 100 100 100 100 100 82 63 10 26 100 100 100 100 90 100 100 96 91 73 32 13 87 100 100 100 100 100 100 100 100 100 100 100
100 100 100 96 48 100 100 100 100 100 100 100 100 100 100 87 60 48 100 100 27 96 100 100 100 100 100 100 100 99 100 100 95 100 17 46 87 96 69 99 11 100 100 100
100 100 100 100 91 100 64 18 81 50 95 75 100 100 100 100 100 100 100 100 100 100 100 85 92 100 100 100 100 100 100 100 100 96 44 69 8 35 10 97 89 34 96 100
57 66 94 82 28 12 0 2 3 42 100 100 100 100 100 100 100 100 100 100 100 100 100 100 100 100 100 100 100 100 100 100 100 100 100 100 100 100 77 100 100 100 100 100
6 26 84 90 5 17 0 38 30 83 92 90 91 99 97 65 94 100 100 100 100 100 100 100 82 88 100 100 100 66 100 100 100 100 100 100 100 100 100 100 100 100 100 100
20 99 100 9 99 100 73 5 31 83 84 98 99 100 100 99 99 7 100 100 99 100 100 94 79 100 100 100 92 100 100 56 28 15 68 100 100 100 100 100 100 100 100 100
4 3 4 51 22 2 4 3 0 14 0 24 100 80 27 5 5 0 3 31 100 81 100 100 92 66 100 100 99 98 99 100 69 100 97 100 95 99 100 97 96 100 100 100
10 5 4 68 99 11 1 26 76 8 73 74 81 78 80 71 31 2 4 12 98 93 100 99 36 100 100 100 100 100 100 100 100 100 100 100 100 100 84 100 99 88 96 100
4 2 0 0 0 0 0 1 0 0 4 3 32 14 23 34 44 7 1 0 0 4 44 97 100 100 100 100 100 98 95 100 100 100 100 100 100 100 100 100 100 100 100 100
4 5 4 9 0 0 0 0 0 0 0 0 0 0 0 0 0 2 0 0 0 0 0 0 92 100 100 100 100 100 28 100 100 100 100 100 100 100 100 100 100 100 100 100
0 27 3 1 0 3 0 0 0 0 0 0 0 0 0 1 0 0 0 0 0 0 0 0 0 49 96 100 100 100 100 100 100 100 100 100 100 100 100 100 100 100 100 100
8 2 4 7 0 17 0 0 0 0 0 0 0 0 0 1 0 0 0 0 0 0 0 1 4 3 0 28 73 84 100 98 97 100 100 100 100 100 100 100 100 100 100 100